Terminal Aerodrome Forecast
Issued by NWS Mt. Holly, NJ

Home | Current Version | Previous Version | Text Only | Print | Product List | Glossary On
Versions: 1 2 3 4 5 6 7 8 9 10 11 12 13 14 15 16 17 18 19 20 21 22 23 24 25 26 27 28 29
000
FTAK31 PANC 252111 AAA
TAFABE
TAF AMD
PABE 252111Z 2521/2618 19006KT P6SM VCSH SCT020 BKN050
      TEMPO 2521/2524 BKN020
     FM260000 17006KT 6SM -RA BKN025 BKN045
     FM260900 VRB03KT P6SM SCT020 BKN040=

USA.gov is the U.S. government's official web portal to all federal, state and local government web resources and services.